Time,TemperatureF,DewpointF,PressureIn,WindDirection,WindDirectionDegrees,WindSpeedMPH,WindSpeedGustMPH,Humidity,HourlyPrecipIn,Conditions,Clouds,dailyrainin,SoftwareType,DateUTC
2013-08-08 00:01:00,76.2,74.3,29.95,East,80,0.0,1.0,94,0.00,,,0.00,WeatherCatV1.15B25,2013-08-08 04:01:00,
2013-08-08 00:06:00,76.2,74.3,29.95,East,80,0.0,0.0,94,0.00,,,0.00,WeatherCatV1.15B25,2013-08-08 04:06:00,
2013-08-08 00:11:00,76.2,74.0,29.95,East,80,0.0,0.0,93,0.00,,,0.00,WeatherCatV1.15B25,2013-08-08 04:11:00,
2013-08-08 00:32:00,76.1,74.2,29.95,East,80,0.0,0.0,94,0.00,,,0.00,WeatherCatV1.15B25,2013-08-08 04:32:00,
2013-08-08 00:37:00,76.2,74.3,29.95,East,80,0.0,0.0,94,0.00,,,0.00,WeatherCatV1.15B25,2013-08-08 04:37:00,
2013-08-08 00:42:00,76.1,74.2,29.94,East,80,0.0,0.0,94,0.00,,,0.00,WeatherCatV1.15B25,2013-08-08 04:42:00,
2013-08-08 00:47:00,76.2,74.3,29.94,East,80,2.0,2.0,94,0.00,,,0.00,WeatherCatV1.15B25,2013-08-08 04:47:00,
2013-08-08 00:48:00,76.2,74.3,29.94,ENE,77,0.0,2.0,94,0.00,,,0.00,WeatherCatV1.15B25,2013-08-08 04:48:00,
2013-08-08 00:53:00,76.2,74.3,29.94,ENE,77,1.0,2.0,94,0.00,,,0.00,WeatherCatV1.15B25,2013-08-08 04:53:00,
2013-08-08 00:54:00,76.2,74.3,29.94,ENE,77,0.0,2.0,94,0.00,,,0.00,WeatherCatV1.15B25,2013-08-08 04:54:00,
2013-08-08 00:59:00,76.2,74.3,29.94,ESE,111,1.0,2.0,94,0.00,,,0.00,WeatherCatV1.15B25,2013-08-08 04:59:00,
2013-08-08 01:04:00,76.2,74.3,29.94,ENE,67,0.0,2.0,94,0.00,,,0.00,WeatherCatV1.15B25,2013-08-08 05:04:00,
2013-08-08 01:09:00,76.2,74.0,29.94,East,92,0.0,4.0,93,0.00,,,0.00,WeatherCatV1.15B25,2013-08-08 05:09:00,
2013-08-08 01:14:00,76.1,73.9,29.93,East,93,2.0,4.0,93,0.00,,,0.00,WeatherCatV1.15B25,2013-08-08 05:14:00,
2013-08-08 01:19:00,76.1,73.9,29.93,ESE,109,2.0,4.0,93,0.00,,,0.00,WeatherCatV1.15B25,2013-08-08 05:19:00,
2013-08-08 01:24:00,76.0,73.8,29.93,ESE,113,4.0,5.0,93,0.00,,,0.00,WeatherCatV1.15B25,2013-08-08 05:24:00,
2013-08-08 01:29:00,76.0,73.8,29.93,ESE,105,3.0,3.0,93,0.00,,,0.00,WeatherCatV1.15B25,2013-08-08 05:29:00,
2013-08-08 01:34:00,75.9,73.7,29.93,East,84,3.0,3.0,93,0.00,,,0.00,WeatherCatV1.15B25,2013-08-08 05:34:00,
2013-08-08 01:39:00,75.9,73.7,29.93,East,98,4.0,6.0,93,0.00,,,0.00,WeatherCatV1.15B25,2013-08-08 05:39:00,
2013-08-08 01:44:00,75.9,73.7,29.93,East,84,2.0,4.0,93,0.00,,,0.00,WeatherCatV1.15B25,2013-08-08 05:44:00,
2013-08-08 01:49:00,75.9,73.7,29.93,ESE,109,1.0,3.0,93,0.00,,,0.00,WeatherCatV1.15B25,2013-08-08 05:49:00,
2013-08-08 01:54:00,76.0,73.8,29.93,ESE,106,1.0,4.0,93,0.00,,,0.00,WeatherCatV1.15B25,2013-08-08 05:54:00,
2013-08-08 01:59:00,76.0,73.8,29.93,ESE,107,0.0,5.0,93,0.00,,,0.00,WeatherCatV1.15B25,2013-08-08 05:59:00,
2013-08-08 02:04:00,76.0,73.8,29.93,East,98,0.0,4.0,93,0.00,,,0.00,WeatherCatV1.15B25,2013-08-08 06:04:00,
2013-08-08 02:09:00,76.0,73.8,29.93,East,80,2.0,2.0,93,0.00,,,0.00,WeatherCatV1.15B25,2013-08-08 06:09:00,
2013-08-08 02:14:00,76.1,73.9,29.93,East,92,0.0,3.0,93,0.00,,,0.00,WeatherCatV1.15B25,2013-08-08 06:14:00,
2013-08-08 02:19:00,76.0,73.8,29.93,ESE,110,1.0,1.0,93,0.00,,,0.00,WeatherCatV1.15B25,2013-08-08 06:19:00,
2013-08-08 02:24:00,75.9,73.7,29.93,East,97,0.0,3.0,93,0.00,,,0.00,WeatherCatV1.15B25,2013-08-08 06:24:00,
2013-08-08 02:29:00,75.9,73.7,29.93,East,96,1.0,2.0,93,0.00,,,0.00,WeatherCatV1.15B25,2013-08-08 06:29:00,
2013-08-08 02:34:00,75.9,73.7,29.93,East,84,1.0,2.0,93,0.00,,,0.00,WeatherCatV1.15B25,2013-08-08 06:34:00,
2013-08-08 02:39:00,75.9,73.7,29.93,East,85,0.0,2.0,93,0.00,,,0.00,WeatherCatV1.15B25,2013-08-08 06:39:00,
2013-08-08 02:44:00,75.9,73.7,29.93,East,98,0.0,4.0,93,0.00,,,0.00,WeatherCatV1.15B25,2013-08-08 06:44:00,
2013-08-08 02:49:00,75.8,73.6,29.93,East,84,2.0,2.0,93,0.00,,,0.00,WeatherCatV1.15B25,2013-08-08 06:49:00,
2013-08-08 02:54:00,75.8,73.6,29.93,East,91,0.0,2.0,93,0.00,,,0.00,WeatherCatV1.15B25,2013-08-08 06:54:00,
2013-08-08 02:59:00,75.8,73.6,29.92,East,90,0.0,1.0,93,0.00,,,0.00,WeatherCatV1.15B25,2013-08-08 06:59:00,
2013-08-08 03:04:00,75.7,73.5,29.92,East,85,0.0,3.0,93,0.00,,,0.00,WeatherCatV1.15B25,2013-08-08 07:04:00,
2013-08-08 03:09:00,75.7,73.5,29.92,East,84,0.0,1.0,93,0.00,,,0.00,WeatherCatV1.15B25,2013-08-08 07:09:00,
2013-08-08 03:14:00,75.7,73.5,29.92,East,82,0.0,1.0,93,0.00,,,0.00,WeatherCatV1.15B25,2013-08-08 07:14:00,
2013-08-08 03:19:00,75.7,73.8,29.92,East,82,0.0,0.0,94,0.00,,,0.00,WeatherCatV1.15B25,2013-08-08 07:19:00,
2013-08-08 03:24:00,75.6,73.4,29.93,East,82,0.0,0.0,93,0.00,,,0.00,WeatherCatV1.15B25,2013-08-08 07:24:00,
2013-08-08 03:29:00,75.6,73.4,29.93,East,88,0.0,1.0,93,0.00,,,0.00,WeatherCatV1.15B25,2013-08-08 07:29:00,
2013-08-08 03:34:00,75.6,73.7,29.92,East,79,0.0,2.0,94,0.00,,,0.00,WeatherCatV1.15B25,2013-08-08 07:34:00,
2013-08-08 03:39:00,75.6,73.7,29.92,ENE,78,0.0,1.0,94,0.00,,,0.00,WeatherCatV1.15B25,2013-08-08 07:39:00,
2013-08-08 03:44:00,75.6,73.4,29.92,ESE,103,0.0,2.0,93,0.00,,,0.00,WeatherCatV1.15B25,2013-08-08 07:44:00,
2013-08-08 03:49:00,75.6,73.4,29.92,East,90,1.0,2.0,93,0.00,,,0.00,WeatherCatV1.15B25,2013-08-08 07:49:00,
2013-08-08 03:54:00,75.6,73.4,29.92,East,80,0.0,4.0,93,0.00,,,0.00,WeatherCatV1.15B25,2013-08-08 07:54:00,
2013-08-08 03:59:00,75.6,73.7,29.92,East,84,1.0,4.0,94,0.00,,,0.00,WeatherCatV1.15B25,2013-08-08 07:59:00,
2013-08-08 04:04:00,75.7,73.8,29.92,ENE,67,1.0,4.0,94,0.00,,,0.00,WeatherCatV1.15B25,2013-08-08 08:04:00,
2013-08-08 04:09:00,75.7,73.8,29.92,East,94,0.0,1.0,94,0.00,,,0.00,WeatherCatV1.15B25,2013-08-08 08:09:00,
2013-08-08 04:14:00,75.7,73.8,29.92,East,96,0.0,3.0,94,0.00,,,0.00,WeatherCatV1.15B25,2013-08-08 08:14:00,
2013-08-08 04:19:00,75.7,73.8,29.92,East,94,0.0,1.0,94,0.00,,,0.00,WeatherCatV1.15B25,2013-08-08 08:19:00,
2013-08-08 04:24:00,75.7,73.8,29.92,East,91,1.0,2.0,94,0.00,,,0.00,WeatherCatV1.15B25,2013-08-08 08:24:00,
2013-08-08 04:29:00,75.8,73.9,29.92,ENE,75,0.0,1.0,94,0.00,,,0.00,WeatherCatV1.15B25,2013-08-08 08:29:00,
2013-08-08 04:34:00,75.8,73.9,29.92,East,82,0.0,1.0,94,0.00,,,0.00,WeatherCatV1.15B25,2013-08-08 08:34:00,
2013-08-08 04:39:00,75.8,73.9,29.92,East,84,0.0,1.0,94,0.00,,,0.01,WeatherCatV1.15B25,2013-08-08 08:39:00,
2013-08-08 04:44:00,75.8,73.9,29.92,East,93,1.0,1.0,94,0.00,,,0.01,WeatherCatV1.15B25,2013-08-08 08:44:00,
2013-08-08 04:49:00,75.8,73.9,29.92,East,90,1.0,5.0,94,0.00,,,0.01,WeatherCatV1.15B25,2013-08-08 08:49:00,
2013-08-08 04:54:00,75.8,73.9,29.92,East,100,1.0,4.0,94,0.00,,,0.01,WeatherCatV1.15B25,2013-08-08 08:54:00,
2013-08-08 04:59:00,75.7,73.8,29.91,East,88,0.0,2.0,94,0.00,,,0.01,WeatherCatV1.15B25,2013-08-08 08:59:00,
2013-08-08 05:04:00,75.8,73.9,29.92,ESE,103,1.0,4.0,94,0.00,,,0.01,WeatherCatV1.15B25,2013-08-08 09:04:00,
2013-08-08 05:09:00,75.8,73.9,29.92,East,97,0.0,2.0,94,0.00,,,0.01,WeatherCatV1.15B25,2013-08-08 09:09:00,
2013-08-08 05:14:00,75.8,73.9,29.92,East,86,0.0,5.0,94,0.00,,,0.01,WeatherCatV1.15B25,2013-08-08 09:14:00,
2013-08-08 05:19:00,75.8,73.9,29.92,East,96,0.0,4.0,94,0.00,,,0.01,WeatherCatV1.15B25,2013-08-08 09:19:00,
2013-08-08 05:24:00,75.8,73.9,29.92,East,97,0.0,3.0,94,0.00,,,0.01,WeatherCatV1.15B25,2013-08-08 09:24:00,
2013-08-08 05:29:00,75.8,73.9,29.92,East,86,1.0,2.0,94,0.00,,,0.01,WeatherCatV1.15B25,2013-08-08 09:29:00,
2013-08-08 05:34:00,75.8,73.9,29.92,East,87,2.0,2.0,94,0.00,,,0.01,WeatherCatV1.15B25,2013-08-08 09:34:00,
2013-08-08 05:39:00,75.8,73.9,29.92,East,92,1.0,6.0,94,0.00,,,0.01,WeatherCatV1.15B25,2013-08-08 09:39:00,
2013-08-08 05:44:00,75.9,74.0,29.92,East,81,0.0,2.0,94,0.00,,,0.01,WeatherCatV1.15B25,2013-08-08 09:44:00,
2013-08-08 05:49:00,75.9,74.0,29.92,East,85,1.0,4.0,94,0.00,,,0.01,WeatherCatV1.15B25,2013-08-08 09:49:00,
2013-08-08 05:54:00,75.9,74.0,29.92,East,97,2.0,3.0,94,0.00,,,0.01,WeatherCatV1.15B25,2013-08-08 09:54:00,
2013-08-08 05:59:00,75.9,74.0,29.92,East,99,2.0,2.0,94,0.00,,,0.01,WeatherCatV1.15B25,2013-08-08 09:59:00,
2013-08-08 06:04:00,75.9,74.0,29.92,East,96,0.0,1.0,94,0.00,,,0.01,WeatherCatV1.15B25,2013-08-08 10:04:00,
2013-08-08 06:09:00,75.9,74.0,29.93,East,87,0.0,4.0,94,0.00,,,0.01,WeatherCatV1.15B25,2013-08-08 10:09:00,
2013-08-08 06:14:00,76.0,74.1,29.93,East,84,1.0,7.0,94,0.00,,,0.01,WeatherCatV1.15B25,2013-08-08 10:14:00,
2013-08-08 06:19:00,76.0,74.1,29.93,East,85,1.0,4.0,94,0.00,,,0.01,WeatherCatV1.15B25,2013-08-08 10:19:00,
2013-08-08 06:24:00,76.0,74.1,29.93,ENE,75,3.0,4.0,94,0.00,,,0.01,WeatherCatV1.15B25,2013-08-08 10:24:00,
2013-08-08 06:29:00,76.0,73.8,29.93,East,83,0.0,4.0,93,0.00,,,0.01,WeatherCatV1.15B25,2013-08-08 10:29:00,
2013-08-08 06:34:00,76.0,73.8,29.93,East,95,2.0,2.0,93,0.00,,,0.01,WeatherCatV1.15B25,2013-08-08 10:34:00,
2013-08-08 06:39:00,76.0,74.1,29.93,East,100,0.0,5.0,94,0.00,,,0.01,WeatherCatV1.15B25,2013-08-08 10:39:00,
2013-08-08 06:44:00,76.0,74.1,29.93,East,96,1.0,2.0,94,0.00,,,0.01,WeatherCatV1.15B25,2013-08-08 10:44:00,
2013-08-08 06:49:00,76.0,74.1,29.93,East,99,0.0,5.0,94,0.00,,,0.01,WeatherCatV1.15B25,2013-08-08 10:49:00,
2013-08-08 06:54:00,76.0,74.1,29.93,ESE,109,2.0,4.0,94,0.00,,,0.01,WeatherCatV1.15B25,2013-08-08 10:54:00,
2013-08-08 06:59:00,76.0,74.1,29.93,East,96,0.0,4.0,94,0.00,,,0.01,WeatherCatV1.15B25,2013-08-08 10:59:00,
2013-08-08 07:04:00,76.1,74.2,29.92,ESE,117,2.0,2.0,94,0.00,,,0.01,WeatherCatV1.15B25,2013-08-08 11:04:00,
2013-08-08 07:09:00,76.0,74.1,29.92,East,101,0.0,4.0,94,0.00,,,0.01,WeatherCatV1.15B25,2013-08-08 11:09:00,
2013-08-08 07:14:00,76.1,74.2,29.92,ESE,103,2.0,4.0,94,0.00,,,0.01,WeatherCatV1.15B25,2013-08-08 11:14:00,
2013-08-08 07:19:00,76.1,74.2,29.93,East,100,0.0,2.0,94,0.00,,,0.01,WeatherCatV1.15B25,2013-08-08 11:19:00,
2013-08-08 07:24:00,76.1,73.9,29.93,East,80,1.0,2.0,93,0.00,,,0.01,WeatherCatV1.15B25,2013-08-08 11:24:00,
2013-08-08 07:29:00,76.1,73.9,29.93,East,88,1.0,4.0,93,0.00,,,0.01,WeatherCatV1.15B25,2013-08-08 11:29:00,
2013-08-08 07:34:00,76.2,74.0,29.93,SE,143,0.0,3.0,93,0.00,,,0.01,WeatherCatV1.15B25,2013-08-08 11:34:00,
2013-08-08 07:39:00,76.4,74.5,29.93,ENE,74,1.0,5.0,94,0.00,,,0.01,WeatherCatV1.15B25,2013-08-08 11:39:00,
2013-08-08 07:44:00,76.6,74.4,29.93,ESE,122,1.0,5.0,93,0.00,,,0.01,WeatherCatV1.15B25,2013-08-08 11:44:00,
2013-08-08 07:49:00,76.9,74.7,29.93,East,83,0.0,5.0,93,0.00,,,0.01,WeatherCatV1.15B25,2013-08-08 11:49:00,
2013-08-08 07:54:00,77.2,75.0,29.93,East,85,0.0,2.0,93,0.00,,,0.01,WeatherCatV1.15B25,2013-08-08 11:54:00,
2013-08-08 07:59:00,77.5,75.0,29.93,East,95,0.0,1.0,92,0.00,,,0.01,WeatherCatV1.15B25,2013-08-08 11:59:00,
2013-08-08 08:04:00,77.8,75.3,29.93,ESE,107,2.0,2.0,92,0.00,,,0.01,WeatherCatV1.15B25,2013-08-08 12:04:00,
2013-08-08 08:09:00,78.1,75.2,29.93,East,88,0.0,1.0,91,0.00,,,0.01,WeatherCatV1.15B25,2013-08-08 12:09:00,
2013-08-08 08:15:00,78.4,75.5,29.94,East,83,1.0,2.0,91,0.00,,,0.01,WeatherCatV1.15B25,2013-08-08 12:15:00,
2013-08-08 08:20:00,78.8,75.6,29.94,East,101,1.0,2.0,90,0.00,,,0.01,WeatherCatV1.15B25,2013-08-08 12:20:00,
2013-08-08 08:25:00,79.2,75.7,29.94,East,82,0.0,5.0,89,0.00,,,0.01,WeatherCatV1.15B25,2013-08-08 12:25:00,
2013-08-08 08:30:00,79.6,75.7,29.94,ESE,104,1.0,6.0,88,0.00,,,0.01,WeatherCatV1.15B25,2013-08-08 12:30:00,
2013-08-08 08:35:00,80.0,76.1,29.94,ESE,117,2.0,6.0,88,0.00,,,0.01,WeatherCatV1.15B25,2013-08-08 12:35:00,
2013-08-08 08:40:00,80.5,76.6,29.94,East,101,1.0,3.0,88,0.00,,,0.01,WeatherCatV1.15B25,2013-08-08 12:40:00,
2013-08-08 08:45:00,80.9,76.7,29.95,East,80,1.0,5.0,87,0.00,,,0.01,WeatherCatV1.15B25,2013-08-08 12:45:00,
2013-08-08 08:50:00,81.2,76.6,29.94,East,80,1.0,4.0,86,0.00,,,0.01,WeatherCatV1.15B25,2013-08-08 12:50:00,
2013-08-08 08:55:00,81.5,76.5,29.95,South,180,1.0,7.0,85,0.00,,,0.01,WeatherCatV1.15B25,2013-08-08 12:55:00,
2013-08-08 09:00:00,81.8,76.5,29.95,ESE,119,4.0,6.0,84,0.00,,,0.01,WeatherCatV1.15B25,2013-08-08 13:00:00,
2013-08-08 09:05:00,82.0,76.7,29.95,ESE,107,4.0,5.0,84,0.00,,,0.01,WeatherCatV1.15B25,2013-08-08 13:05:00,
2013-08-08 09:10:00,82.3,77.0,29.95,SE,126,3.0,5.0,84,0.00,,,0.01,WeatherCatV1.15B25,2013-08-08 13:10:00,
2013-08-08 09:15:00,82.6,76.9,29.95,SSW,201,1.0,8.0,83,0.00,,,0.01,WeatherCatV1.15B25,2013-08-08 13:15:00,
2013-08-08 09:20:00,82.7,77.0,29.95,ESE,111,2.0,5.0,83,0.00,,,0.01,WeatherCatV1.15B25,2013-08-08 13:20:00,
2013-08-08 09:25:00,83.0,77.3,29.95,SE,132,2.0,2.0,83,0.00,,,0.01,WeatherCatV1.15B25,2013-08-08 13:25:00,
2013-08-08 09:30:00,83.4,77.3,29.95,ESE,118,3.0,4.0,82,0.00,,,0.01,WeatherCatV1.15B25,2013-08-08 13:30:00,
2013-08-08 09:35:00,83.7,77.2,29.95,SSE,156,4.0,8.0,81,0.00,,,0.01,WeatherCatV1.15B25,2013-08-08 13:35:00,
2013-08-08 09:40:00,84.0,77.5,29.95,SSE,161,0.0,4.0,81,0.00,,,0.01,WeatherCatV1.15B25,2013-08-08 13:40:00,
2013-08-08 09:45:00,84.1,77.6,29.95,SSE,159,1.0,5.0,81,0.00,,,0.01,WeatherCatV1.15B25,2013-08-08 13:45:00,
2013-08-08 09:50:00,84.4,77.5,29.96,ENE,74,5.0,6.0,80,0.00,,,0.01,WeatherCatV1.15B25,2013-08-08 13:50:00,
2013-08-08 09:55:00,84.9,77.6,29.96,East,93,0.0,4.0,79,0.00,,,0.01,WeatherCatV1.15B25,2013-08-08 13:55:00,
2013-08-08 10:00:00,85.2,77.5,29.96,SSW,194,2.0,6.0,78,0.00,,,0.01,WeatherCatV1.15B25,2013-08-08 14:00:00,
2013-08-08 10:05:00,85.3,77.6,29.96,ESE,123,1.0,10.0,78,0.00,,,0.01,WeatherCatV1.15B25,2013-08-08 14:05:00,
2013-08-08 10:10:00,85.6,77.5,29.96,ESE,113,2.0,7.0,77,0.00,,,0.01,WeatherCatV1.15B25,2013-08-08 14:10:00,
2013-08-08 10:15:00,85.9,78.2,29.97,South,183,3.0,4.0,78,0.00,,,0.01,WeatherCatV1.15B25,2013-08-08 14:15:00,
2013-08-08 10:20:00,86.3,77.8,29.96,South,177,2.0,7.0,76,0.00,,,0.01,WeatherCatV1.15B25,2013-08-08 14:20:00,
2013-08-08 10:25:00,86.3,77.8,29.97,ESE,108,3.0,9.0,76,0.00,,,0.01,WeatherCatV1.15B25,2013-08-08 14:25:00,
2013-08-08 10:30:00,86.5,77.6,29.97,SSE,168,0.0,7.0,75,0.00,,,0.01,WeatherCatV1.15B25,2013-08-08 14:30:00,
2013-08-08 10:35:00,86.7,77.8,29.97,SSW,192,2.0,5.0,75,0.00,,,0.01,WeatherCatV1.15B25,2013-08-08 14:35:00,
2013-08-08 10:40:00,86.8,77.5,29.97,East,91,5.0,6.0,74,0.00,,,0.01,WeatherCatV1.15B25,2013-08-08 14:40:00,
2013-08-08 10:45:00,87.0,78.1,29.97,ESE,116,2.0,4.0,75,0.00,,,0.01,WeatherCatV1.15B25,2013-08-08 14:45:00,
2013-08-08 10:50:00,87.2,78.3,29.97,SSE,167,0.0,1.0,75,0.00,,,0.01,WeatherCatV1.15B25,2013-08-08 14:50:00,
2013-08-08 10:55:00,87.4,77.7,29.97,East,94,0.0,6.0,73,0.00,,,0.01,WeatherCatV1.15B25,2013-08-08 14:55:00,
2013-08-08 11:00:00,87.7,77.5,29.97,East,91,4.0,10.0,72,0.00,,,0.01,WeatherCatV1.15B25,2013-08-08 15:00:00,
2013-08-08 11:05:00,87.9,77.7,29.98,East,97,1.0,6.0,72,0.00,,,0.01,WeatherCatV1.15B25,2013-08-08 15:05:00,
2013-08-08 11:10:00,88.0,77.4,29.98,SE,135,0.0,7.0,71,0.00,,,0.01,WeatherCatV1.15B25,2013-08-08 15:10:00,
2013-08-08 11:15:00,88.2,77.6,29.98,East,101,5.0,7.0,71,0.00,,,0.01,WeatherCatV1.15B25,2013-08-08 15:15:00,
2013-08-08 11:20:00,88.5,77.4,29.98,ESE,115,1.0,5.0,70,0.00,,,0.01,WeatherCatV1.15B25,2013-08-08 15:20:00,
2013-08-08 11:25:00,88.9,77.8,29.98,ESE,115,6.0,7.0,70,0.00,,,0.01,WeatherCatV1.15B25,2013-08-08 15:25:00,
2013-08-08 11:30:00,89.1,77.1,29.98,South,182,2.0,9.0,68,0.00,,,0.01,WeatherCatV1.15B25,2013-08-08 15:30:00,
2013-08-08 11:35:00,89.3,77.3,29.98,SE,128,5.0,8.0,68,0.00,,,0.01,WeatherCatV1.15B25,2013-08-08 15:35:00,
2013-08-08 11:40:00,89.6,77.6,29.98,East,100,2.0,5.0,68,0.00,,,0.01,WeatherCatV1.15B25,2013-08-08 15:40:00,
2013-08-08 11:45:00,89.9,77.4,29.98,SE,138,3.0,9.0,67,0.00,,,0.01,WeatherCatV1.15B25,2013-08-08 15:45:00,
2013-08-08 11:50:00,90.1,77.6,29.98,ESE,113,3.0,8.0,67,0.00,,,0.01,WeatherCatV1.15B25,2013-08-08 15:50:00,
2013-08-08 11:55:00,90.3,76.9,29.97,East,89,2.0,6.0,65,0.00,,,0.01,WeatherCatV1.15B25,2013-08-08 15:55:00,
2013-08-08 12:00:00,89.8,76.9,29.98,SSE,152,1.0,2.0,66,0.00,,,0.01,WeatherCatV1.15B25,2013-08-08 16:00:00,
2013-08-08 12:05:00,89.7,77.7,29.98,SE,141,0.0,0.0,68,0.00,,,0.01,WeatherCatV1.15B25,2013-08-08 16:05:00,
2013-08-08 12:10:00,89.5,77.1,29.98,ESE,116,0.0,4.0,67,0.00,,,0.01,WeatherCatV1.15B25,2013-08-08 16:10:00,
2013-08-08 12:15:00,89.8,77.8,29.98,East,91,1.0,3.0,68,0.00,,,0.01,WeatherCatV1.15B25,2013-08-08 16:15:00,
2013-08-08 12:20:00,90.4,77.0,29.97,ENE,64,7.0,8.0,65,0.00,,,0.01,WeatherCatV1.15B25,2013-08-08 16:20:00,
2013-08-08 12:25:00,90.6,76.7,29.97,ESE,120,1.0,8.0,64,0.00,,,0.01,WeatherCatV1.15B25,2013-08-08 16:25:00,
2013-08-08 12:30:00,90.9,77.5,29.97,SE,144,0.0,8.0,65,0.00,,,0.01,WeatherCatV1.15B25,2013-08-08 16:30:00,
2013-08-08 12:35:00,90.8,76.9,29.97,ENE,73,2.0,7.0,64,0.00,,,0.01,WeatherCatV1.15B25,2013-08-08 16:35:00,
2013-08-08 12:40:00,90.8,77.4,29.97,ESE,108,1.0,2.0,65,0.00,,,0.01,WeatherCatV1.15B25,2013-08-08 16:40:00,
2013-08-08 12:45:00,90.9,76.5,29.97,SSE,156,2.0,4.0,63,0.00,,,0.01,WeatherCatV1.15B25,2013-08-08 16:45:00,
2013-08-08 12:50:00,90.6,76.2,29.97,ESE,111,4.0,7.0,63,0.00,,,0.01,WeatherCatV1.15B25,2013-08-08 16:50:00,
2013-08-08 12:55:00,90.7,76.8,29.97,ENE,61,0.0,8.0,64,0.00,,,0.01,WeatherCatV1.15B25,2013-08-08 16:55:00,
2013-08-08 13:00:00,91.1,76.7,29.97,ESE,121,6.0,9.0,63,0.00,,,0.01,WeatherCatV1.15B25,2013-08-08 17:00:00,
2013-08-08 13:05:00,91.6,77.2,29.97,ESE,107,2.0,5.0,63,0.00,,,0.01,WeatherCatV1.15B25,2013-08-08 17:05:00,
2013-08-08 13:10:00,92.1,77.7,29.97,SSE,159,1.0,6.0,63,0.00,,,0.01,WeatherCatV1.15B25,2013-08-08 17:10:00,
2013-08-08 13:15:00,92.2,77.3,29.97,ESE,119,5.0,7.0,62,0.00,,,0.01,WeatherCatV1.15B25,2013-08-08 17:15:00,
2013-08-08 13:20:00,92.4,77.4,29.97,SSE,157,3.0,8.0,62,0.00,,,0.01,WeatherCatV1.15B25,2013-08-08 17:20:00,
2013-08-08 13:25:00,92.8,76.3,29.97,South,178,1.0,6.0,59,0.00,,,0.01,WeatherCatV1.15B25,2013-08-08 17:25:00,
2013-08-08 13:30:00,92.9,76.9,29.97,East,92,3.0,4.0,60,0.00,,,0.01,WeatherCatV1.15B25,2013-08-08 17:30:00,
2013-08-08 13:35:00,92.6,77.1,29.96,ESE,107,1.0,7.0,61,0.00,,,0.01,WeatherCatV1.15B25,2013-08-08 17:35:00,
2013-08-08 13:40:00,92.4,75.9,29.97,ESE,105,0.0,9.0,59,0.00,,,0.01,WeatherCatV1.15B25,2013-08-08 17:40:00,
2013-08-08 13:45:00,92.2,76.3,29.96,ESE,113,1.0,6.0,60,0.00,,,0.01,WeatherCatV1.15B25,2013-08-08 17:45:00,
2013-08-08 13:50:00,92.3,76.9,29.96,SE,129,3.0,8.0,61,0.00,,,0.01,WeatherCatV1.15B25,2013-08-08 17:50:00,
2013-08-08 13:55:00,92.5,76.0,29.96,SSE,158,1.0,6.0,59,0.00,,,0.01,WeatherCatV1.15B25,2013-08-08 17:55:00,
2013-08-08 14:00:00,92.6,75.6,29.96,East,79,5.0,6.0,58,0.00,,,0.01,WeatherCatV1.15B25,2013-08-08 18:00:00,
2013-08-08 14:05:00,92.8,76.3,29.95,SE,138,2.0,7.0,59,0.00,,,0.01,WeatherCatV1.15B25,2013-08-08 18:05:00,
2013-08-08 14:10:00,92.5,76.5,29.95,SE,135,1.0,3.0,60,0.00,,,0.01,WeatherCatV1.15B25,2013-08-08 18:10:00,
2013-08-08 14:15:00,92.7,75.2,29.95,South,188,6.0,9.0,57,0.00,,,0.01,WeatherCatV1.15B25,2013-08-08 18:15:00,
2013-08-08 14:20:00,92.6,75.6,29.95,SSE,164,0.0,1.0,58,0.00,,,0.01,WeatherCatV1.15B25,2013-08-08 18:20:00,
2013-08-08 14:25:00,92.5,75.5,29.95,SSW,192,4.0,5.0,58,0.00,,,0.01,WeatherCatV1.15B25,2013-08-08 18:25:00,
2013-08-08 14:30:00,92.2,74.7,29.96,SSW,200,5.0,5.0,57,0.00,,,0.01,WeatherCatV1.15B25,2013-08-08 18:30:00,
2013-08-08 14:35:00,92.0,76.6,29.95,SSW,196,1.0,5.0,61,0.00,,,0.01,WeatherCatV1.15B25,2013-08-08 18:35:00,
2013-08-08 14:40:00,91.7,77.3,29.95,SSE,161,0.0,4.0,63,0.00,,,0.01,WeatherCatV1.15B25,2013-08-08 18:40:00,
2013-08-08 14:45:00,91.1,77.2,29.95,SSE,151,0.0,6.0,64,0.00,,,0.01,WeatherCatV1.15B25,2013-08-08 18:45:00,
2013-08-08 14:50:00,90.5,77.1,29.95,SSE,152,1.0,3.0,65,0.00,,,0.01,WeatherCatV1.15B25,2013-08-08 18:50:00,
2013-08-08 14:55:00,90.1,76.7,29.95,East,101,1.0,5.0,65,0.00,,,0.01,WeatherCatV1.15B25,2013-08-08 18:55:00,
2013-08-08 15:00:00,90.1,78.1,29.95,WSW,245,1.0,5.0,68,0.00,,,0.01,WeatherCatV1.15B25,2013-08-08 19:00:00,
2013-08-08 15:05:00,90.5,78.9,29.95,SW,214,1.0,6.0,69,0.00,,,0.01,WeatherCatV1.15B25,2013-08-08 19:05:00,
2013-08-08 15:10:00,91.0,78.5,29.95,West,261,0.0,4.0,67,0.00,,,0.01,WeatherCatV1.15B25,2013-08-08 19:10:00,
2013-08-08 15:15:00,91.4,77.9,29.95,South,178,1.0,6.0,65,0.00,,,0.01,WeatherCatV1.15B25,2013-08-08 19:15:00,
2013-08-08 15:20:00,91.8,78.8,29.94,WSW,240,0.0,3.0,66,0.00,,,0.01,WeatherCatV1.15B25,2013-08-08 19:20:00,
2013-08-08 15:25:00,92.1,78.6,29.94,South,190,7.0,7.0,65,0.00,,,0.01,WeatherCatV1.15B25,2013-08-08 19:25:00,
2013-08-08 15:30:00,92.1,78.1,29.94,SSE,162,0.0,5.0,64,0.00,,,0.01,WeatherCatV1.15B25,2013-08-08 19:30:00,
2013-08-08 15:35:00,92.5,78.5,29.94,WNW,284,1.0,5.0,64,0.00,,,0.01,WeatherCatV1.15B25,2013-08-08 19:35:00,
2013-08-08 15:40:00,92.7,78.7,29.94,East,100,3.0,6.0,64,0.00,,,0.01,WeatherCatV1.15B25,2013-08-08 19:40:00,
2013-08-08 15:45:00,92.9,78.4,29.94,West,262,1.0,7.0,63,0.00,,,0.01,WeatherCatV1.15B25,2013-08-08 19:45:00,
2013-08-08 15:50:00,92.9,79.4,29.94,SW,221,1.0,4.0,65,0.00,,,0.01,WeatherCatV1.15B25,2013-08-08 19:50:00,
2013-08-08 15:55:00,92.6,78.1,29.94,SE,146,8.0,9.0,63,0.00,,,0.01,WeatherCatV1.15B25,2013-08-08 19:55:00,
2013-08-08 16:00:00,92.3,78.3,29.94,South,190,0.0,5.0,64,0.00,,,0.01,WeatherCatV1.15B25,2013-08-08 20:00:00,
2013-08-08 16:05:00,92.4,77.0,29.93,South,191,2.0,7.0,61,0.00,,,0.01,WeatherCatV1.15B25,2013-08-08 20:05:00,
2013-08-08 16:10:00,92.2,77.7,29.93,SW,223,1.0,3.0,63,0.00,,,0.01,WeatherCatV1.15B25,2013-08-08 20:10:00,
2013-08-08 16:15:00,92.2,78.2,29.92,WSW,243,1.0,5.0,64,0.00,,,0.01,WeatherCatV1.15B25,2013-08-08 20:15:00,
2013-08-08 16:20:00,92.3,78.8,29.92,West,271,4.0,5.0,65,0.00,,,0.01,WeatherCatV1.15B25,2013-08-08 20:20:00,
2013-08-08 16:25:00,92.4,78.4,29.92,WSW,240,2.0,7.0,64,0.00,,,0.01,WeatherCatV1.15B25,2013-08-08 20:25:00,
2013-08-08 16:30:00,92.4,78.4,29.92,West,276,3.0,8.0,64,0.00,,,0.01,WeatherCatV1.15B25,2013-08-08 20:30:00,
2013-08-08 16:35:00,92.3,77.8,29.92,SW,221,1.0,5.0,63,0.00,,,0.01,WeatherCatV1.15B25,2013-08-08 20:35:00,
2013-08-08 16:40:00,92.4,78.9,29.91,SW,234,3.0,6.0,65,0.00,,,0.01,WeatherCatV1.15B25,2013-08-08 20:40:00,
2013-08-08 16:45:00,92.4,78.4,29.91,West,268,2.0,3.0,64,0.00,,,0.01,WeatherCatV1.15B25,2013-08-08 20:45:00,
2013-08-08 16:50:00,92.6,79.1,29.91,West,259,1.0,7.0,65,0.00,,,0.01,WeatherCatV1.15B25,2013-08-08 20:50:00,
2013-08-08 16:55:00,92.5,78.5,29.92,South,184,2.0,7.0,64,0.00,,,0.01,WeatherCatV1.15B25,2013-08-08 20:55:00,
2013-08-08 17:00:00,92.3,78.8,29.92,WSW,240,0.0,8.0,65,0.00,,,0.01,WeatherCatV1.15B25,2013-08-08 21:00:00,
2013-08-08 17:05:00,91.9,78.4,29.92,West,260,2.0,6.0,65,0.00,,,0.01,WeatherCatV1.15B25,2013-08-08 21:05:00,
2013-08-08 17:10:00,91.4,78.9,29.92,SSW,196,0.0,2.0,67,0.00,,,0.01,WeatherCatV1.15B25,2013-08-08 21:10:00,
2013-08-08 17:15:00,90.7,78.2,29.92,South,177,0.0,0.0,67,0.00,,,0.01,WeatherCatV1.15B25,2013-08-08 21:15:00,
2013-08-08 17:20:00,89.9,77.4,29.93,SSW,195,0.0,4.0,67,0.00,,,0.01,WeatherCatV1.15B25,2013-08-08 21:20:00,
2013-08-08 17:25:00,89.2,77.2,29.93,South,189,0.0,2.0,68,0.00,,,0.01,WeatherCatV1.15B25,2013-08-08 21:25:00,
2013-08-08 17:30:00,88.5,76.1,29.93,WSW,238,5.0,5.0,67,0.00,,,0.01,WeatherCatV1.15B25,2013-08-08 21:30:00,
2013-08-08 17:35:00,88.1,76.6,29.94,SW,223,0.0,6.0,69,0.00,,,0.01,WeatherCatV1.15B25,2013-08-08 21:35:00,
2013-08-08 17:40:00,87.8,77.2,29.94,WSW,250,0.0,4.0,71,0.00,,,0.01,WeatherCatV1.15B25,2013-08-08 21:40:00,
2013-08-08 17:45:00,87.5,76.9,29.94,SSW,213,1.0,4.0,71,0.00,,,0.01,WeatherCatV1.15B25,2013-08-08 21:45:00,
2013-08-08 17:50:00,87.3,77.6,29.94,West,271,0.0,3.0,73,0.00,,,0.01,WeatherCatV1.15B25,2013-08-08 21:50:00,
2013-08-08 17:55:00,87.1,75.7,29.94,West,270,0.0,0.0,69,0.00,,,0.01,WeatherCatV1.15B25,2013-08-08 21:55:00,
2013-08-08 18:00:00,86.9,75.0,29.94,SW,236,2.0,4.0,68,0.00,,,0.01,WeatherCatV1.15B25,2013-08-08 22:00:00,
2013-08-08 18:05:00,86.4,75.9,29.95,SE,142,9.0,10.0,71,0.00,,,0.01,WeatherCatV1.15B25,2013-08-08 22:05:00,
2013-08-08 18:10:00,84.1,73.7,29.96,SSE,162,11.0,14.0,71,0.00,,,0.01,WeatherCatV1.15B25,2013-08-08 22:10:00,
2013-08-08 18:15:00,82.3,73.6,29.95,ESE,103,5.0,12.0,75,0.00,,,0.01,WeatherCatV1.15B25,2013-08-08 22:15:00,
2013-08-08 18:20:00,81.4,73.5,29.94,South,171,4.0,8.0,77,0.00,,,0.01,WeatherCatV1.15B25,2013-08-08 22:20:00,
2013-08-08 18:25:00,81.0,73.5,29.93,SSW,207,5.0,10.0,78,0.00,,,0.01,WeatherCatV1.15B25,2013-08-08 22:25:00,
2013-08-08 18:30:00,81.2,72.9,29.92,South,180,2.0,3.0,76,0.00,,,0.01,WeatherCatV1.15B25,2013-08-08 22:30:00,
2013-08-08 18:35:00,81.7,73.0,29.93,ESE,121,1.0,1.0,75,0.00,,,0.01,WeatherCatV1.15B25,2013-08-08 22:35:00,
2013-08-08 18:40:00,81.9,74.0,29.92,ESE,114,1.0,1.0,77,0.00,,,0.01,WeatherCatV1.15B25,2013-08-08 22:40:00,
2013-08-08 18:45:00,81.9,74.0,29.93,ESE,112,3.0,4.0,77,0.00,,,0.01,WeatherCatV1.15B25,2013-08-08 22:45:00,
2013-08-08 18:50:00,81.7,73.8,29.93,East,92,0.0,2.0,77,0.00,,,0.01,WeatherCatV1.15B25,2013-08-08 22:50:00,
2013-08-08 18:55:00,81.5,73.6,29.93,East,80,0.0,0.0,77,0.00,,,0.01,WeatherCatV1.15B25,2013-08-08 22:55:00,
2013-08-08 19:00:00,81.4,73.5,29.93,East,88,0.0,0.0,77,0.00,,,0.01,WeatherCatV1.15B25,2013-08-08 23:00:00,
2013-08-08 19:05:00,81.4,73.9,29.93,East,88,0.0,1.0,78,0.00,,,0.01,WeatherCatV1.15B25,2013-08-08 23:05:00,
2013-08-08 19:10:00,81.4,73.9,29.93,East,88,0.0,2.0,78,0.00,,,0.01,WeatherCatV1.15B25,2013-08-08 23:10:00,
2013-08-08 19:15:00,81.5,74.0,29.93,NW,325,2.0,6.0,78,0.00,,,0.01,WeatherCatV1.15B25,2013-08-08 23:15:00,
2013-08-08 19:20:00,81.5,74.3,29.93,NW,326,0.0,0.0,79,0.00,,,0.01,WeatherCatV1.15B25,2013-08-08 23:20:00,
2013-08-08 19:25:00,81.5,74.3,29.93,NW,326,0.0,0.0,79,0.00,,,0.01,WeatherCatV1.15B25,2013-08-08 23:25:00,
2013-08-08 19:30:00,81.5,74.3,29.94,NW,326,0.0,1.0,79,0.00,,,0.01,WeatherCatV1.15B25,2013-08-08 23:30:00,
2013-08-08 19:35:00,81.4,74.2,29.95,NNW,331,1.0,3.0,79,0.00,,,0.01,WeatherCatV1.15B25,2013-08-08 23:35:00,
2013-08-08 19:40:00,81.2,74.4,29.95,NNW,347,0.0,0.0,80,0.00,,,0.01,WeatherCatV1.15B25,2013-08-08 23:40:00,
2013-08-08 19:45:00,81.1,74.3,29.95,NNW,330,0.0,1.0,80,0.00,,,0.01,WeatherCatV1.15B25,2013-08-08 23:45:00,
2013-08-08 19:50:00,81.1,74.3,29.95,NW,322,2.0,4.0,80,0.00,,,0.01,WeatherCatV1.15B25,2013-08-08 23:50:00,
2013-08-08 19:55:00,81.0,74.2,29.96,NNW,333,5.0,6.0,80,0.00,,,0.01,WeatherCatV1.15B25,2013-08-08 23:55:00,
2013-08-08 20:00:00,80.9,74.1,29.96,NW,323,0.0,2.0,80,0.00,,,0.01,WeatherCatV1.15B25,2013-08-09 00:00:00,
2013-08-08 20:05:00,80.8,74.0,29.96,NNW,331,0.0,2.0,80,0.00,,,0.01,WeatherCatV1.15B25,2013-08-09 00:05:00,
2013-08-08 20:10:00,80.8,74.0,29.96,NW,323,0.0,2.0,80,0.00,,,0.01,WeatherCatV1.15B25,2013-08-09 00:10:00,
2013-08-08 20:15:00,80.8,74.0,29.96,NW,311,3.0,5.0,80,0.00,,,0.01,WeatherCatV1.15B25,2013-08-09 00:15:00,
2013-08-08 20:20:00,80.8,74.0,29.96,NW,317,0.0,1.0,80,0.00,,,0.01,WeatherCatV1.15B25,2013-08-09 00:20:00,
2013-08-08 20:25:00,80.8,74.0,29.97,North,355,0.0,3.0,80,0.00,,,0.01,WeatherCatV1.15B25,2013-08-09 00:25:00,
2013-08-08 20:30:00,80.8,74.0,29.97,ENE,64,1.0,4.0,80,0.00,,,0.01,WeatherCatV1.15B25,2013-08-09 00:30:00,
2013-08-08 20:35:00,80.7,74.3,29.97,East,88,2.0,5.0,81,0.00,,,0.01,WeatherCatV1.15B25,2013-08-09 00:35:00,
2013-08-08 20:40:00,80.4,74.0,29.97,ENE,65,3.0,3.0,81,0.00,,,0.01,WeatherCatV1.15B25,2013-08-09 00:40:00,
2013-08-08 20:45:00,79.9,73.5,29.98,ESE,116,0.0,3.0,81,0.00,,,0.01,WeatherCatV1.15B25,2013-08-09 00:45:00,
2013-08-08 20:50:00,79.5,73.5,29.97,ENE,68,0.0,2.0,82,0.00,,,0.01,WeatherCatV1.15B25,2013-08-09 00:50:00,
2013-08-08 20:55:00,79.3,73.3,29.97,ENE,68,0.0,0.0,82,0.00,,,0.01,WeatherCatV1.15B25,2013-08-09 00:55:00,
2013-08-08 21:00:00,79.1,73.5,29.97,ENE,67,0.0,2.0,83,0.00,,,0.01,WeatherCatV1.15B25,2013-08-09 01:00:00,
2013-08-08 21:05:00,79.0,73.4,29.97,NNE,24,2.0,3.0,83,0.00,,,0.01,WeatherCatV1.15B25,2013-08-09 01:05:00,
2013-08-08 21:10:00,78.9,73.3,29.97,North,5,2.0,2.0,83,0.00,,,0.01,WeatherCatV1.15B25,2013-08-09 01:10:00,
2013-08-08 21:15:00,78.7,73.1,29.98,NE,51,0.0,4.0,83,0.00,,,0.01,WeatherCatV1.15B25,2013-08-09 01:15:00,
2013-08-08 21:20:00,78.6,73.0,29.98,ENE,70,0.0,2.0,83,0.00,,,0.01,WeatherCatV1.15B25,2013-08-09 01:20:00,
2013-08-08 21:25:00,78.4,73.1,29.98,ENE,59,2.0,3.0,84,0.00,,,0.01,WeatherCatV1.15B25,2013-08-09 01:25:00,
2013-08-08 21:30:00,78.4,73.1,29.98,NE,41,1.0,1.0,84,0.00,,,0.01,WeatherCatV1.15B25,2013-08-09 01:30:00,
2013-08-08 21:46:00,78.0,73.1,29.99,ESE,105,0.0,2.0,85,0.00,,,0.01,WeatherCatV1.21B27,2013-08-09 01:46:00,
2013-08-08 21:51:00,77.9,73.0,29.99,ESE,105,0.0,1.0,85,0.00,,,0.01,WeatherCatV1.21B27,2013-08-09 01:51:00,
2013-08-08 21:56:00,77.8,73.3,29.99,ENE,77,0.0,1.0,86,0.00,,,0.01,WeatherCatV1.21B27,2013-08-09 01:56:00,
2013-08-08 22:01:00,77.8,73.3,29.99,East,80,0.0,0.0,86,0.00,,,0.01,WeatherCatV1.21B27,2013-08-09 02:01:00,
2013-08-08 22:06:00,77.8,73.3,30.00,East,80,1.0,2.0,86,0.00,,,0.01,WeatherCatV1.21B27,2013-08-09 02:06:00,
2013-08-08 22:11:00,77.7,73.2,30.00,East,90,2.0,3.0,86,0.00,,,0.01,WeatherCatV1.21B27,2013-08-09 02:11:00,
2013-08-08 22:16:00,77.7,73.2,30.00,ENE,77,0.0,4.0,86,0.00,,,0.01,WeatherCatV1.21B27,2013-08-09 02:16:00,
2013-08-08 22:21:00,77.6,73.1,30.00,ENE,70,0.0,1.0,86,0.00,,,0.01,WeatherCatV1.21B27,2013-08-09 02:21:00,
2013-08-08 22:26:00,77.6,73.1,30.00,ENE,78,0.0,1.0,86,0.00,,,0.01,WeatherCatV1.21B27,2013-08-09 02:26:00,
2013-08-08 22:31:00,77.6,73.1,30.01,ENE,78,1.0,1.0,86,0.00,,,0.01,WeatherCatV1.21B27,2013-08-09 02:31:00,
2013-08-08 22:36:00,77.5,73.3,30.01,ENE,78,0.0,0.0,87,0.00,,,0.01,WeatherCatV1.21B27,2013-08-09 02:36:00,
2013-08-08 22:41:00,77.5,73.3,30.01,ENE,78,2.0,3.0,87,0.00,,,0.01,WeatherCatV1.21B27,2013-08-09 02:41:00,
2013-08-08 22:46:00,77.5,73.3,30.01,East,94,1.0,2.0,87,0.00,,,0.01,WeatherCatV1.21B27,2013-08-09 02:46:00,
2013-08-08 22:51:00,77.5,73.0,30.01,East,80,1.0,2.0,86,0.00,,,0.01,WeatherCatV1.21B27,2013-08-09 02:51:00,
2013-08-08 22:56:00,77.5,73.0,30.01,ENE,69,1.0,5.0,86,0.00,,,0.01,WeatherCatV1.21B27,2013-08-09 02:56:00,
2013-08-08 23:01:00,77.5,73.0,30.01,ENE,67,0.0,1.0,86,0.00,,,0.01,WeatherCatV1.21B27,2013-08-09 03:01:00,
2013-08-08 23:06:00,77.5,73.0,30.01,ENE,67,0.0,1.0,86,0.00,,,0.01,WeatherCatV1.21B27,2013-08-09 03:06:00,
2013-08-08 23:11:00,77.6,73.1,30.01,ENE,67,0.0,1.0,86,0.00,,,0.01,WeatherCatV1.21B27,2013-08-09 03:11:00,
2013-08-08 23:16:00,77.5,73.3,30.01,ENE,67,0.0,1.0,87,0.00,,,0.01,WeatherCatV1.21B27,2013-08-09 03:16:00,
2013-08-08 23:21:00,77.6,73.4,30.01,ENE,67,0.0,1.0,87,0.00,,,0.01,WeatherCatV1.21B27,2013-08-09 03:21:00,
2013-08-08 23:26:00,77.5,73.3,30.01,ENE,67,0.0,0.0,87,0.00,,,0.01,WeatherCatV1.21B27,2013-08-09 03:26:00,
2013-08-08 23:31:00,77.5,73.3,30.00,ENE,67,0.0,0.0,87,0.00,,,0.01,WeatherCatV1.21B27,2013-08-09 03:31:00,
2013-08-08 23:36:00,77.5,73.3,30.00,ENE,67,0.0,2.0,87,0.00,,,0.01,WeatherCatV1.21B27,2013-08-09 03:36:00,
2013-08-08 23:41:00,77.5,73.3,30.00,ENE,67,0.0,0.0,87,0.00,,,0.01,WeatherCatV1.21B27,2013-08-09 03:41:00,
2013-08-08 23:46:00,77.4,73.2,30.00,ENE,65,0.0,4.0,87,0.00,,,0.01,WeatherCatV1.21B27,2013-08-09 03:46:00,
2013-08-08 23:51:00,77.3,73.1,30.00,ENE,65,0.0,0.0,87,0.00,,,0.01,WeatherCatV1.21B27,2013-08-09 03:51:00,
2013-08-08 23:56:00,77.3,73.1,30.00,ENE,65,0.0,0.0,87,0.00,,,0.01,WeatherCatV1.21B27,2013-08-09 03:56:00,